Flag for United Kingdom

Past Weather in Nottingham, England, United Kingdom — Yesterday and Last 2 Weeks

Now
46 °F

Cool.


Feels Like: 40 °F
Forecast: 52 / 39 °F
Wind: 12 mph from Northwest

Location: Nottingham Weather Centre
Current Time: Sep 25, 2020 at 9:17:13 am
Latest Report: Sep 25, 2020 at 8:00 am
Visibility: 25 mi
Pressure29.54 "Hg
Humidity: 76%
Dew Point: 39 °F
Location of NottinghamLocation

Past Weather in Nottingham — Graph

°F

Nottingham Temperature Yesterday

Maximum temperature yesterday: 58 °F (at 3:00 pm)
Minimum temperature yesterday: 44 °F (at 4:00 am)
Average temperature yesterday: 49 °F

High & Low Weather Summary for the Past Weeks

 TemperatureHumidityPressure
High79 °F (Sep 15, 4:00 pm)98% (Sep 15, 7:00 am)30.49 "Hg (Sep 15, 7:00 am)
Low44 °F (Sep 24, 4:00 am)31% (Sep 22, 4:00 pm)29.29 "Hg (Sep 24, 9:00 am)
Average58 °F77%30.02 "Hg
* Reported Sep 10 8:00 am — Sep 25 8:00 am, Nottingham. Weather by CustomWeather, © 2020

Note: Actual official high and low records may vary slightly from our data, if they occured in-between our weather recording intervals... More about our weather records

Nottingham Weather History for the Previous 24 Hours

Scroll right to see more
 ConditionsComfort  
Time TempWeatherWind HumidityBarometerVisibility
8:00 am
Fri, Sep 25
46 °FCool.12 mph76%29.54 "Hg25 mi
7:00 am47 °FCool.14 mph75%29.50 "Hg25 mi
6:00 am47 °FCool.16 mph76%29.47 "Hg25 mi
5:00 am47 °FCool.15 mph80%29.44 "Hg28 mi
4:00 am47 °FCool.14 mph86%29.44 "Hg25 mi
3:00 am47 °FCool.13 mph88%29.41 "Hg22 mi
2:00 am47 °FCool.10 mph89%29.41 "Hg25 mi
1:00 am46 °FCool.9 mph88%29.41 "Hg28 mi
12:00 am46 °FCool.8 mph87%29.38 "Hg25 mi
11:00 pm
Thu, Sep 24
46 °FCool.8 mph88%29.38 "Hg17 mi
10:00 pm46 °FCool.7 mph89%29.38 "Hg28 mi
9:00 pm45 °FQuite cool.5 mph93%29.35 "Hg31 mi
8:00 pm46 °FCool.2 mph89%29.35 "Hg37 mi
7:00 pm47 °FLight rain. Overcast.8 mph87%29.35 "Hg11 mi
6:00 pm52 °FCool.5 mph66%29.32 "Hg37 mi
5:00 pm50 °FCool.3 mph73%29.32 "Hg34 mi
4:00 pm54 °FCool.8 mph55%29.32 "Hg28 mi
3:00 pm58 °FRefreshingly cool.10 mph49%29.32 "Hg34 mi
2:00 pm55 °FCool.8 mph60%29.32 "Hg37 mi
1:00 pm56 °FRefreshingly cool.13 mph55%29.32 "Hg40 mi
12:00 pm53 °FCool.12 mph64%29.32 "Hg31 mi
11:00 am54 °FCool.13 mph68%29.32 "Hg25 mi
10:00 am52 °FCool.9 mph81%29.29 "Hg34 mi
9:00 am48 °FCool.7 mph92%29.29 "Hg28 mi
Weather by CustomWeather, © 2020

See weather overview